FW6551 Weather Reports


time (UTC)temp
F
wind
direction
speed
knots
gust
knots
rain 1hr
in
rain 24hr
in
rain mn
in
humidity
%
barometer
mb
20260503223544 71 333 1.7 9.6 0.00 0.00 0.00 26 1004.8
20260503223040 71 210 2.6 7.0 0.00 0.00 0.00 24 1004.7
20260503222538 72 245 2.6 4.3 0.00 0.00 0.00 25 1004.8
20260503222036 72 311 3.5 9.6 0.00 0.00 0.00 24 1004.8
20260503221534 72 272 3.5 9.6 0.00 0.00 0.00 25 1004.6
20260503221031 72 223 2.6 6.1 0.00 0.00 0.00 28 1004.7
20260503220527 73 245 2.6 7.8 0.00 0.00 0.00 27 1004.5
20260503220024 72 157 2.6 7.8 0.00 0.00 0.00 28 1004.6
20260503215521 72 328 2.6 9.6 0.00 0.00 0.00 30 1004.6
20260503215018 73 292 4.3 7.0 0.00 0.00 0.00 30 1004.7
20260503214516 73 273 3.5 7.8 0.00 0.00 0.00 31 1004.4
20260503214013 72 120 0.9 8.7 0.00 0.00 0.00 33 1004.4
20260503213511 72 181 2.6 6.1 0.00 0.00 0.00 33 1004.5
20260503213007 72 71 0.9 8.7 0.00 0.00 0.00 33 1004.4
20260503212505 73 305 1.7 6.1 0.00 0.00 0.00 35 1004.6
20260503212002 72 25 4.3 10.4 0.00 0.00 0.00 33 1004.5
20260503211459 72 230 2.6 10.4 0.00 0.00 0.00 34 1004.7
20260503210954 73 181 1.7 13.0 0.00 0.00 0.00 35 1004.5
20260503210451 73 109 0.0 6.1 0.00 0.00 0.00 36 1004.4
20260503205946 73 210 2.6 7.8 0.00 0.00 0.00 34 1004.6
20260503205443 74 248 2.6 4.3 0.00 0.00 0.00 34 1004.6
20260503204939 73 152 1.7 4.3 0.00 0.00 0.00 33 1004.7
20260503204437 72 198 0.0 5.2 0.00 0.00 0.00 36 1004.8
20260503203933 73 252 2.6 6.1 0.00 0.00 0.00 35 1004.8
20260503203431 73 231 1.7 7.8 0.00 0.00 0.00 34 1004.7
20260503202928 73 63 1.7 6.1 0.00 0.00 0.00 35 1004.9
20260503202426 71 268 2.6 13.0 0.00 0.00 0.00 35 1004.9
20260503201924 72 318 2.6 7.0 0.00 0.00 0.00 32 1005.0
20260503201421 72 15 1.7 8.7 0.00 0.00 0.00 35 1005.1
20260503200918 73 287 0.0 4.3 0.00 0.00 0.00 35 1005.0
20260503200414 72 144 3.5 8.7 0.00 0.00 0.00 33 1005.1
20260503195912 72 237 2.6 7.8 0.00 0.00 0.00 34 1005.2
20260503195409 72 286 1.7 11.3 0.00 0.00 0.00 37 1005.1
20260503194905 72 295 3.5 10.4 0.00 0.00 0.00 35 1005.1
20260503194402 72 264 2.6 6.1 0.00 0.00 0.00 34 1005.0
20260503193858 73 289 3.5 7.8 0.00 0.00 0.00 35 1005.2
20260503193353 72 213 2.6 7.8 0.00 0.00 0.00 36 1005.3
20260503192849 72 208 1.7 4.3 0.00 0.00 0.00 42 1005.2
20260503192345 71 142 0.0 5.2 0.00 0.00 0.00 38 1005.3
20260503191842 70 200 0.9 7.8 0.00 0.00 0.00 39 1005.3
20260503191339 70 274 1.7 6.1 0.00 0.00 0.00 38 1005.3
20260503190835 71 11 4.3 5.2 0.00 0.00 0.00 38 1005.4
20260503190333 70 253 1.7 9.6 0.00 0.00 0.00 39 1005.7
20260503185830 69 298 0.9 3.5 0.00 0.00 0.00 42 1005.5
20260503185325 69 202 1.7 5.2 0.00 0.00 0.00 39 1005.8
20260503184820 69 323 2.6 7.0 0.00 0.00 0.00 38 1005.7
20260503184316 71 289 0.0 5.2 0.00 0.00 0.00 39 1005.7
20260503183812 70 302 0.9 4.3 0.00 0.00 0.00 40 1005.5
20260503183310 70 253 0.0 5.2 0.00 0.00 0.00 40 1005.7
20260503182807 69 216 1.7 7.0 0.00 0.00 0.00 39 1005.8
20260503182306 69 212 1.7 7.0 0.00 0.00 0.00 41 1005.7
20260503181803 71 341 4.3 6.1 0.00 0.00 0.00 39 1005.8
20260503181300 70 212 1.7 7.0 0.00 0.00 0.00 40 1005.9
20260503180756 68 175 4.3 7.8 0.00 0.00 0.00 40 1006.1
20260503180254 69 236 5.2 7.0 0.00 0.00 0.00 40 1006.0
20260503175750 70 183 6.1 6.1 0.00 0.00 0.00 39 1006.2
20260503175249 68 195 1.7 3.5 0.00 0.00 0.00 41 1006.1
20260503174744 68 340 2.6 6.1 0.00 0.00 0.00 40 1006.2
20260503174242 69 352 1.7 3.5 0.00 0.00 0.00 39 1006.0
20260503173742 69 298 1.7 3.5 0.00 0.00 0.00 41 1006.1
20260503173238 69 40 0.9 7.8 0.00 0.00 0.00 41 1006.2
20260503172736 68 78 0.0 4.3 0.00 0.00 0.00 41 1006.3
20260503172233 68 327 4.3 7.8 0.00 0.00 0.00 40 1006.5
20260503171729 67 247 3.5 7.8 0.00 0.00 0.00 41 1006.5
20260503171226 68 178 2.6 3.5 0.00 0.00 0.00 40 1006.4
20260503170723 68 261 0.9 3.5 0.00 0.00 0.00 40 1006.3
20260503170220 67 160 0.0 7.0 0.00 0.00 0.00 41 1006.4
20260503160142 65 264 1.7 5.2 0.00 0.00 0.00 43 1006.5
20260503150612 64 114 3.5 5.2 0.00 0.00 0.00 43 1006.6
20260503150108 63 252 2.6 6.1 0.00 0.00 0.00 44 1006.5
20260503131001 57 79 1.7 4.3 0.00 0.00 0.00 57 1006.9
20260503130459 56 178 1.7 2.6 0.00 0.00 0.00 59 1007.0
20260503110344 45 181 0.0 1.7 0.00 0.00 0.00 82 1007.3
20260503090229 49 173 0.0 2.6 0.00 0.00 0.00 63 1007.9
20260503081156 51 198 0.0 1.7 0.00 0.00 0.00 62 1008.5
20260503080652 51 152 1.7 2.6 0.00 0.00 0.00 62 1008.5
20260503080149 51 194 0.9 1.7 0.00 0.00 0.00 63 1008.6
20260503072626 51 146 0.9 2.6 0.00 0.00 0.00 62 1008.7
20260503072123 51 162 1.7 1.7 0.00 0.00 0.00 63 1009.0
20260503071619 51 164 0.0 2.6 0.00 0.00 0.00 64 1009.1
20260503071116 51 164 1.7 1.7 0.00 0.00 0.00 67 1009.2
20260503070614 51 197 1.7 2.6 0.00 0.00 0.00 67 1009.2
20260503070112 50 165 0.9 1.7 0.00 0.00 0.00 69 1009.1
20260503055032 52 0 0.0 0.9 0.00 0.00 0.00 71 1010.5
20260503054528 53 125 1.7 1.7 0.00 0.00 0.00 66 1010.5
20260503054025 53 140 0.0 0.9 0.00 0.00 0.00 66 1010.5
20260503053523 53 174 0.0 0.9 0.00 0.00 0.00 64 1010.5
20260503053021 53 157 0.0 0.9 0.00 0.00 0.00 63 1010.6
20260503052517 53 309 0.0 0.9 0.00 0.00 0.00 63 1010.8
20260503052014 53 117 0.0 0.9 0.00 0.00 0.00 63 1010.5
20260503051509 53 242 0.0 2.6 0.00 0.00 0.00 62 1010.4
20260503051007 53 195 0.0 0.9 0.00 0.00 0.00 63 1010.7
20260503050503 53 45 0.9 1.7 0.00 0.00 0.00 61 1010.7
20260503050000 53 135 0.9 1.7 0.00 0.00 0.00 62 1010.5
20260503045457 52 132 0.9 2.6 0.00 0.00 0.00 61 1010.7
20260503044954 52 227 0.0 0.9 0.00 0.00 0.00 64 1010.8
20260503044451 52 198 0.9 2.6 0.00 0.00 0.00 65 1010.8
20260503043949 51 147 0.0 1.7 0.00 0.00 0.00 66 1010.8
20260503043444 51 164 0.0 2.6 0.00 0.00 0.00 67 1010.9
20260503042941 51 217 0.0 1.7 0.00 0.00 0.00 68 1011.0
20260503042438 50 174 0.0 1.7 0.00 0.00 0.00 69 1011.0
20260503041935 50 66 0.0 0.9 0.00 0.00 0.00 67 1011.1
20260503041431 50 147 0.0 0.9 0.00 0.00 0.00 67 1010.9
20260503040929 50 113 0.0 0.9 0.00 0.00 0.00 67 1011.1
20260503040426 51 130 0.0 1.7 0.00 0.00 0.00 67 1011.2
20260503035923 51 116 0.0 1.7 0.00 0.00 0.00 66 1011.2
20260503035420 51 122 0.9 1.7 0.00 0.00 0.00 64 1011.4
20260503034918 51 147 0.0 1.7 0.00 0.00 0.00 65 1011.4
20260503034415 51 128 0.0 1.7 0.00 0.00 0.00 67 1011.5
20260503033912 51 186 0.0 0.9 0.00 0.00 0.00 65 1011.7
20260503033409 51 142 0.0 1.7 0.00 0.00 0.00 66 1011.7
20260503032907 51 336 0.0 0.0 0.00 0.00 0.00 63 1011.8
20260503032406 51 135 0.0 0.9 0.00 0.00 0.00 62 1011.7
20260503031903 51 304 0.0 0.9 0.00 0.00 0.00 62 1011.8
20260503031401 51 133 0.0 0.9 0.00 0.00 0.00 63 1011.9
20260503030856 51 185 0.0 0.0 0.00 0.00 0.00 63 1012.0
20260503030353 51 185 0.0 1.7 0.00 0.00 0.00 64 1012.0
20260503025850 51 75 0.0 1.7 0.00 0.00 0.00 64 1011.8
20260503025347 51 269 1.7 2.6 0.00 0.00 0.00 64 1012.0
20260503024845 51 335 0.0 1.7 0.00 0.00 0.00 63 1012.2
20260503024341 51 164 0.0 1.7 0.00 0.00 0.00 63 1012.2
20260503023838 51 158 0.0 0.9 0.00 0.00 0.00 63 1012.0
20260503023335 51 135 0.0 0.0 0.00 0.00 0.00 64 1012.1
20260503022831 51 135 0.0 0.9 0.00 0.00 0.00 62 1012.0
20260503022326 51 186 0.0 1.7 0.00 0.00 0.00 61 1012.2
20260503021823 51 195 0.0 0.9 0.00 0.00 0.00 63 1012.2
20260503021319 51 315 0.0 0.9 0.00 0.00 0.00 64 1012.1
20260503020817 51 157 0.0 0.9 0.00 0.00 0.00 64 1012.1
20260503020315 51 217 0.0 0.9 0.00 0.00 0.00 63 1012.2
20260503015811 52 217 0.0 0.9 0.00 0.00 0.00 62 1012.2
20260503015308 52 172 0.0 1.7 0.00 0.00 0.00 59 1012.1
20260503014803 52 210 0.0 0.9 0.00 0.00 0.00 58 1012.2
20260503014302 53 193 0.0 0.0 0.00 0.00 0.00 56 1012.1
20260503013758 53 145 0.0 0.9 0.00 0.00 0.00 55 1012.1
20260503013256 54 168 0.0 0.0 0.00 0.00 0.00 55 1012.1
20260503012753 54 168 0.0 0.0 0.00 0.00 0.00 52 1012.1
20260503012250 55 168 0.0 0.9 0.00 0.00 0.00 51 1012.2
20260503011747 55 154 0.0 0.9 0.00 0.00 0.00 53 1012.2
20260503011244 56 180 0.0 1.7 0.00 0.00 0.00 48 1012.4
20260503010740 56 156 0.0 0.9 0.00 0.00 0.00 47 1012.3
20260503010237 57 197 0.0 1.7 0.00 0.00 0.00 46 1012.3
20260503005734 57 170 0.9 0.9 0.00 0.00 0.00 45 1012.3
20260503005232 57 147 0.0 1.7 0.00 0.00 0.00 44 1012.4
20260503004727 57 151 0.0 0.9 0.00 0.00 0.00 44 1012.4
20260503004226 58 182 0.9 1.7 0.00 0.00 0.00 45 1012.5
20260503003723 58 117 0.0 0.0 0.00 0.00 0.00 44 1012.4
20260503003220 58 151 0.9 0.9 0.00 0.00 0.00 44 1012.5
20260503002716 59 154 0.0 1.7 0.00 0.00 0.00 43 1012.5
20260503002213 59 212 0.0 0.9 0.00 0.00 0.00 43 1012.7
20260503001709 60 186 0.0 1.7 0.00 0.00 0.00 41 1012.6
20260503001206 60 205 0.0 1.7 0.00 0.00 0.00 41 1012.6
20260503000704 60 168 0.0 0.9 0.00 0.00 0.00 41 1012.7
20260503000203 60 132 1.7 2.6 0.00 0.00 0.00 39 1012.6
20260502235658 60 174 0.9 2.6 0.00 0.00 0.00 39 1012.7
20260502235156 60 192 0.9 2.6 0.00 0.00 0.00 41 1012.7
20260502234652 60 222 0.9 4.3 0.00 0.00 0.00 39 1012.7
20260502234149 60 208 2.6 3.5 0.00 0.00 0.00 39 1013.0
20260502233645 60 97 1.7 5.2 0.00 0.00 0.00 39 1013.3
20260502233142 60 177 0.9 6.1 0.00 0.00 0.00 39 1013.2
20260502232637 60 253 3.5 4.3 0.00 0.00 0.00 38 1013.3
20260502232135 61 218 0.9 1.7 0.00 0.00 0.00 38 1013.3
20260502231626 61 132 0.0 3.5 0.00 0.00 0.00 38 1013.4
20260502231124 61 234 1.7 7.0 0.00 0.00 0.00 38 1013.4
20260502230622 60 232 0.0 6.1 0.00 0.00 0.00 38 1013.3
20260502230120 61 261 2.6 4.3 0.00 0.00 0.00 38 1013.4
20260502225615 60 200 1.7 4.3 0.00 0.00 0.00 39 1013.6
20260502225113 60 255 2.6 4.3 0.00 0.00 0.00 38 1013.6
20260502224609 61 330 1.7 4.3 0.00 0.00 0.00 38 1013.8
20260502224106 62 198 3.5 6.1 0.00 0.00 0.00 37 1013.8